DW0156 Weather Reports


Display with metric or nautical units.
time (UTC)temp
F
wind
direction
speed
MPH
gust
MPH
rain 1hr
in
rain 24hr
in
rain mn
in
humidity
%
barometer
mb
20260508092752 59 263 0.0 2.0 0.00 0.00 0.00 77 1029.6
20260508091610 59 263 0.0 3.0 0.00 0.00 0.00 77 1029.6
20260508091059 60 263 0.0 3.0 0.00 0.00 0.00 78 1029.6
20260508090601 60 263 1.0 6.0 0.00 0.00 0.00 78 1029.6
20260508090059 60 263 1.0 6.0 0.00 0.00 0.00 78 1029.6
20260508084949 60 263 1.0 4.0 0.00 0.00 0.00 78 1029.6
20260508084437 60 263 1.0 4.0 0.00 0.00 0.00 78 1029.6
20260508083319 60 263 1.0 5.0 0.00 0.00 0.00 79 1029.5
20260508082811 60 263 1.0 5.0 0.00 0.00 0.00 79 1029.5
20260508082257 60 263 1.0 8.0 0.00 0.00 0.00 79 1029.5
20260508081738 60 263 2.0 8.0 0.00 0.00 0.00 79 1029.5
20260508081223 60 263 2.0 8.0 0.00 0.00 0.00 79 1029.2
20260508075426 61 263 3.0 9.0 0.00 0.00 0.00 78 1029.1
20260508074919 61 263 3.0 11.0 0.00 0.00 0.00 77 1029.1
20260508074426 61 263 4.0 11.0 0.00 0.00 0.00 77 1029.1
20260508073908 62 263 4.0 11.0 0.00 0.00 0.00 76 1029.0
20260508072737 62 263 3.0 10.0 0.00 0.00 0.00 77 1029.0
20260508072237 62 263 4.0 13.0 0.00 0.00 0.00 77 1029.0
20260508071728 62 263 5.0 13.0 0.00 0.00 0.00 77 1029.0
20260508071215 62 263 5.0 13.0 0.00 0.00 0.00 76 1029.0
20260508070056 62 263 4.0 10.0 0.00 0.00 0.00 78 1029.0
20260508065545 62 263 5.0 11.0 0.00 0.00 0.00 78 1029.1
20260508064408 62 263 4.0 11.0 0.00 0.00 0.00 76 1029.1
20260508063902 62 263 4.0 10.0 0.00 0.00 0.00 74 1029.0
20260508063355 63 263 3.0 10.0 0.00 0.00 0.00 74 1029.0
20260508062842 63 263 3.0 9.0 0.00 0.00 0.00 74 1029.0
20260508062324 63 263 4.0 14.0 0.00 0.00 0.00 76 1029.0
20260508061819 63 263 4.0 14.0 0.00 0.00 0.00 76 1029.0
20260508061310 63 263 5.0 14.0 0.00 0.00 0.00 76 1029.0
20260508060157 63 263 7.0 14.0 0.00 0.00 0.00 76 1029.0
20260508055042 63 263 8.0 14.0 0.00 0.00 0.00 77 1029.0
20260508053900 62 263 6.0 13.0 0.00 0.00 0.00 76 1029.0
20260508053345 62 263 6.0 13.0 0.00 0.00 0.00 75 1029.0
20260508052840 62 263 6.0 13.0 0.00 0.00 0.00 76 1029.0
20260508051716 63 263 4.0 12.0 0.00 0.00 0.00 76 1029.0
20260508051201 63 263 5.0 14.0 0.00 0.00 0.00 76 1029.0
20260508050655 63 263 5.0 14.0 0.00 0.00 0.00 75 1029.0
20260508050157 63 263 6.0 14.0 0.00 0.00 0.00 75 1029.0
20260508045021 63 263 6.0 13.0 0.00 0.00 0.00 73 1029.0
20260508043227 64 263 4.0 12.0 0.00 0.00 0.00 71 1029.0
20260508041447 64 263 4.0 12.0 0.00 0.00 0.00 71 1029.2
20260508040928 64 263 6.0 12.0 0.00 0.00 0.00 72 1029.3
20260508040415 64 263 5.0 12.0 0.00 0.00 0.00 74 1029.3
20260508035858 64 263 4.0 14.0 0.00 0.00 0.00 75 1029.5
20260508034723 62 263 5.0 14.0 0.00 0.00 0.00 78 1029.5
20260508034229 62 263 4.0 14.0 0.00 0.00 0.00 78 1029.6
20260508033734 61 263 4.0 11.0 0.00 0.00 0.00 80 1029.6
20260508033238 61 263 5.0 11.0 0.00 0.00 0.00 81 1029.6
20260508032732 61 263 5.0 11.0 0.00 0.00 0.00 83 1029.9
20260508032242 61 263 5.0 11.0 0.00 0.00 0.00 84 1029.9
20260508031731 61 263 5.0 10.0 0.00 0.00 0.00 86 1029.9
20260508030548 60 263 4.0 10.0 0.00 0.00 0.00 86 1030.1
20260508030041 60 263 5.0 14.0 0.00 0.00 0.00 85 1030.1
20260508025532 61 263 6.0 14.0 0.00 0.00 0.00 86 1030.1
20260508025026 61 263 6.0 14.0 0.00 0.00 0.00 85 1030.1
20260508024519 61 263 4.0 14.0 0.00 0.00 0.00 85 1030.1
20260508023959 61 263 3.0 13.0 0.00 0.00 0.00 86 1030.2
20260508023456 61 263 3.0 13.0 0.00 0.00 0.00 86 1030.2
20260508022337 60 263 4.0 11.0 0.00 0.00 0.00 87 1030.6
20260508021829 60 263 3.0 9.0 0.00 0.00 0.00 88 1030.6
20260508021318 60 263 4.0 12.0 0.00 0.00 0.00 87 1030.6
20260508020802 60 263 4.0 13.0 0.00 0.00 0.00 87 1030.6
20260508015655 60 263 6.0 13.0 0.00 0.00 0.00 86 1030.7
20260508015202 60 263 5.0 13.0 0.00 0.00 0.00 86 1030.7
20260508014655 60 263 3.0 12.0 0.00 0.00 0.00 87 1030.7
20260508014155 60 263 4.0 12.0 0.00 0.00 0.00 87 1031.1
20260508013046 59 263 4.0 11.0 0.00 0.00 0.00 86 1031.1
20260508012535 60 263 4.0 12.0 0.00 0.00 0.00 87 1031.1
20260508012030 59 263 5.0 12.0 0.00 0.00 0.00 86 1031.1
20260508011528 60 263 5.0 12.0 0.00 0.00 0.00 86 1031.1
20260508011018 60 263 4.0 12.0 0.00 0.00 0.00 85 1031.1
20260508010506 60 263 4.0 8.0 0.00 0.00 0.00 86 1031.1
20260508005346 59 263 3.0 10.0 0.00 0.00 0.00 86 1031.1
20260508004837 59 263 3.0 10.0 0.00 0.00 0.00 86 1031.1
20260508004317 59 263 3.0 10.0 0.00 0.00 0.00 85 1031.1
20260508003804 59 263 3.0 9.0 0.00 0.00 0.00 85 1031.1
20260508003300 59 263 3.0 9.0 0.00 0.00 0.00 84 1031.1
20260508002800 59 263 2.0 6.0 0.00 0.00 0.00 84 1031.0
20260508002252 59 263 2.0 6.0 0.00 0.00 0.00 84 1031.0
20260508001757 59 263 2.0 6.0 0.00 0.00 0.00 84 1031.0
20260508001242 59 263 2.0 6.0 0.00 0.00 0.00 84 1031.1
20260508000726 59 263 2.0 6.0 0.00 0.00 0.00 84 1031.1
20260508000212 58 263 2.0 6.0 0.00 0.00 0.00 83 1031.1
20260507235656 58 263 2.0 6.0 0.00 0.00 0.00 82 1031.0
20260507235158 58 263 2.0 9.0 0.00 0.00 0.00 82 1031.0
20260507234036 58 263 3.0 9.0 0.00 0.00 0.00 81 1030.9
20260507233537 58 263 3.0 9.0 0.00 0.00 0.00 81 1030.9
20260507233032 58 263 2.0 8.0 0.00 0.00 0.00 81 1030.9
20260507232515 58 263 2.0 8.0 0.00 0.00 0.00 81 1030.7
20260507232011 58 263 4.0 8.0 0.00 0.00 0.00 80 1030.7
20260507231511 58 263 4.0 11.0 0.00 0.00 0.00 80 1030.7
20260507231018 59 263 4.0 11.0 0.00 0.00 0.00 79 1030.7
20260507230523 59 263 4.0 11.0 0.00 0.00 0.00 79 1030.7
20260507224907 59 263 2.0 5.0 0.00 0.00 0.00 77 1030.6
20260507224350 59 263 1.0 5.0 0.00 0.00 0.00 77 1030.4
20260507223838 59 263 2.0 5.0 0.00 0.00 0.00 77 1030.4
20260507223321 59 263 2.0 8.0 0.00 0.00 0.00 77 1030.4
20260507222822 59 263 2.0 8.0 0.00 0.00 0.00 77 1030.2
20260507222321 59 263 3.0 8.0 0.00 0.00 0.00 77 1030.2
20260507221819 59 263 2.0 7.0 0.00 0.00 0.00 77 1030.2
20260507221324 59 263 2.0 13.0 0.00 0.00 0.00 77 1030.1
20260507220814 59 263 2.0 13.0 0.00 0.00 0.00 77 1030.1
20260507220316 59 263 3.0 13.0 0.00 0.00 0.00 76 1030.1
20260507215759 59 263 2.0 13.0 0.00 0.00 0.00 76 1029.7
20260507215307 58 263 1.0 7.0 0.00 0.00 0.00 76 1029.7
20260507214806 58 263 2.0 7.0 0.00 0.00 0.00 76 1029.7
20260507214307 58 263 2.0 7.0 0.00 0.00 0.00 76 1029.6
20260507213753 58 263 2.0 7.0 0.00 0.00 0.00 76 1029.6
20260507213240 58 263 2.0 6.0 0.00 0.00 0.00 77 1029.6
20260507212721 58 263 1.0 4.0 0.00 0.00 0.00 77 1029.6
20260507212220 58 263 1.0 4.0 0.00 0.00 0.00 77 1029.6
20260507211715 58 263 1.0 4.0 0.00 0.00 0.00 77 1029.6
20260507211220 58 263 1.0 4.0 0.00 0.00 0.00 77 1029.5
20260507210711 58 263 1.0 4.0 0.00 0.00 0.00 78 1029.5
20260507210218 58 263 1.0 5.0 0.00 0.00 0.00 78 1029.5
20260507205718 58 263 1.0 5.0 0.00 0.00 0.00 78 1029.5
20260507205158 57 263 1.0 5.0 0.00 0.00 0.00 78 1029.5
20260507204707 57 263 1.0 5.0 0.00 0.00 0.00 78 1029.5
20260507204210 57 263 1.0 4.0 0.00 0.00 0.00 78 1029.5
20260507203715 57 263 1.0 4.0 0.00 0.00 0.00 78 1029.5
20260507203207 57 263 0.0 4.0 0.00 0.00 0.00 78 1029.5
20260507202705 57 263 0.0 4.0 0.00 0.00 0.00 78 1029.5
20260507202148 57 263 0.0 4.0 0.00 0.00 0.00 78 1029.5
20260507201629 57 263 0.0 1.0 0.00 0.00 0.00 78 1029.5
20260507201120 57 263 0.0 1.0 0.00 0.00 0.00 78 1029.5
20260507195948 57 263 0.0 0.0 0.00 0.00 0.00 78 1029.5
20260507195451 57 263 0.0 0.0 0.00 0.00 0.00 78 1029.6
20260507194958 57 263 0.0 3.0 0.00 0.00 0.00 78 1029.6
20260507193829 57 263 0.0 2.0 0.00 0.00 0.00 77 1029.6
20260507193339 57 263 0.0 1.0 0.00 0.00 0.00 77 1029.6
20260507192840 57 263 0.0 0.0 0.00 0.00 0.00 77 1029.5
20260507192346 57 263 0.0 0.0 0.00 0.00 0.00 77 1029.5
20260507191854 57 263 0.0 0.0 0.00 0.00 0.00 77 1029.5
20260507191355 57 263 1.0 4.0 0.00 0.00 0.00 77 1029.5
20260507190855 57 263 1.0 9.0 0.00 0.00 0.00 77 1029.5
20260507185730 57 263 2.0 9.0 0.00 0.00 0.00 76 1029.3
20260507185221 57 263 1.0 5.0 0.00 0.00 0.00 77 1029.3
20260507184711 57 263 2.0 5.0 0.00 0.00 0.00 77 1029.3
20260507184219 57 263 1.0 5.0 0.00 0.00 0.00 77 1029.3
20260507183055 57 263 0.0 0.0 0.00 0.00 0.00 78 1029.3
20260507182537 57 263 0.0 0.0 0.00 0.00 0.00 78 1029.5
20260507182020 57 263 0.0 0.0 0.00 0.00 0.00 78 1029.5
20260507181504 57 263 0.0 3.0 0.00 0.00 0.00 79 1029.5
20260507181007 57 263 1.0 5.0 0.00 0.00 0.00 79 1029.4
20260507175343 57 263 2.0 6.0 0.00 0.00 0.00 80 1029.5
20260507174221 57 263 2.0 5.0 0.00 0.00 0.00 81 1029.6
20260507173706 57 263 2.0 5.0 0.00 0.00 0.00 81 1029.6
20260507173155 57 263 1.0 5.0 0.00 0.00 0.00 81 1029.6
20260507172648 57 263 1.0 5.0 0.00 0.00 0.00 81 1029.5
20260507172143 57 263 2.0 5.0 0.00 0.00 0.00 81 1029.5
20260507171650 57 263 2.0 9.0 0.00 0.00 0.00 81 1029.5
20260507171136 57 263 2.0 9.0 0.00 0.00 0.00 81 1029.5
20260507170004 57 263 1.0 6.0 0.00 0.00 0.00 81 1029.5
20260507165502 57 263 2.0 6.0 0.00 0.00 0.00 81 1029.7
20260507164951 57 263 2.0 6.0 0.00 0.00 0.00 80 1029.7
20260507164433 57 263 1.0 6.0 0.00 0.00 0.00 80 1029.7
20260507163245 57 263 0.0 0.0 0.00 0.00 0.00 79 1029.8
20260507162736 57 263 0.0 2.0 0.00 0.00 0.00 79 1029.8
20260507162222 57 263 1.0 9.0 0.00 0.00 0.00 79 1029.8
20260507161721 57 263 2.0 9.0 0.00 0.00 0.00 79 1029.8
20260507160544 57 263 3.0 6.0 0.00 0.00 0.00 77 1030.0
20260507160051 57 263 3.0 6.0 0.00 0.00 0.00 76 1030.0
20260507155540 58 263 2.0 10.0 0.00 0.00 0.00 75 1030.0
20260507154407 58 263 4.0 12.0 0.00 0.00 0.00 74 1030.1
20260507153847 58 263 5.0 12.0 0.00 0.00 0.00 74 1030.1
20260507153350 58 263 4.0 12.0 0.00 0.00 0.00 73 1030.1
20260507152834 58 263 3.0 10.0 0.00 0.00 0.00 72 1029.9
20260507152327 58 263 3.0 9.0 0.00 0.00 0.00 72 1029.9
20260507151822 58 263 3.0 9.0 0.00 0.00 0.00 71 1029.9
20260507151308 58 263 3.0 9.0 0.00 0.00 0.00 71 1030.1
20260507150757 58 263 4.0 13.0 0.00 0.00 0.00 71 1030.1
20260507150242 58 263 4.0 13.0 0.00 0.00 0.00 71 1030.1
20260507145747 58 263 5.0 13.0 0.00 0.00 0.00 71 1030.1
20260507145240 58 263 5.0 13.0 0.00 0.00 0.00 71 1030.1
20260507144723 58 263 4.0 12.0 0.00 0.00 0.00 70 1030.1
20260507144217 58 263 3.0 8.0 0.00 0.00 0.00 70 1030.1
20260507143710 58 263 3.0 8.0 0.00 0.00 0.00 70 1030.1
20260507143207 58 263 3.0 8.0 0.00 0.00 0.00 70 1030.1
20260507142713 58 263 2.0 8.0 0.00 0.00 0.00 70 1030.1
20260507142216 57 263 1.0 4.0 0.00 0.00 0.00 70 1030.1
20260507141702 57 263 0.0 4.0 0.00 0.00 0.00 70 1030.1
20260507140633 57 263 1.0 5.0 0.00 0.00 0.00 70 1030.1
20260507140114 57 263 2.0 5.0 0.00 0.00 0.00 70 1030.1
20260507135610 57 263 1.0 5.0 0.00 0.00 0.00 70 1030.1
20260507133944 57 263 0.0 5.0 0.00 0.00 0.00 70 1030.2
20260507133431 57 263 1.0 5.0 0.00 0.00 0.00 71 1030.2
20260507132932 57 263 1.0 5.0 0.00 0.00 0.00 71 1030.2
20260507132438 57 263 0.0 2.0 0.00 0.00 0.00 71 1030.3
20260507131918 57 263 1.0 0.0 0.00 0.00 0.00 72 1030.3
20260507131359 57 263 1.0 5.0 0.00 0.00 0.00 72 1030.2
20260507130854 57 263 2.0 5.0 0.00 0.00 0.00 72 1030.2
20260507130334 57 263 1.0 5.0 0.00 0.00 0.00 72 1030.2
20260507125204 57 263 1.0 4.0 0.00 0.00 0.00 72 1030.2
20260507124650 57 263 1.0 8.0 0.00 0.00 0.00 73 1030.2
20260507124137 57 263 2.0 8.0 0.00 0.00 0.00 73 1030.6
20260507123000 57 263 2.0 8.0 0.00 0.00 0.00 73 1030.6
20260507122450 57 263 1.0 6.0 0.00 0.00 0.00 73 1030.6
20260507121937 57 263 2.0 6.0 0.00 0.00 0.00 72 1030.6
20260507121435 56 263 2.0 6.0 0.00 0.00 0.00 72 1030.6
20260507120919 56 263 1.0 6.0 0.00 0.00 0.00 72 1030.6
20260507120406 56 263 1.0 6.0 0.00 0.00 0.00 72 1030.6
20260507115849 56 263 2.0 6.0 0.00 0.00 0.00 71 1030.6
20260507115337 56 263 2.0 6.0 0.00 0.00 0.00 71 1030.6
20260507114845 56 263 2.0 6.0 0.00 0.00 0.00 71 1030.6
20260507114334 56 263 2.0 6.0 0.00 0.00 0.00 70 1030.6
20260507113226 56 263 2.0 5.0 0.00 0.00 0.00 70 1030.6
20260507112712 57 263 2.0 5.0 0.00 0.00 0.00 70 1030.6
20260507112202 57 263 0.0 5.0 0.00 0.00 0.00 69 1030.6
20260507111647 57 263 0.0 0.0 0.00 0.00 0.00 69 1030.6
20260507111150 57 263 0.0 4.0 0.00 0.00 0.00 68 1030.6
20260507110643 57 263 1.0 5.0 0.00 0.00 0.00 67 1030.6
20260507110144 57 263 1.0 5.0 0.00 0.00 0.00 67 1030.6
20260507105636 57 263 1.0 5.0 0.00 0.00 0.00 66 1030.5
20260507105128 57 263 1.0 5.0 0.00 0.00 0.00 65 1030.5
20260507104611 57 263 1.0 3.0 0.00 0.00 0.00 65 1030.5
20260507104109 57 263 1.0 3.0 0.00 0.00 0.00 65 1030.6
20260507103614 57 263 1.0 3.0 0.00 0.00 0.00 65 1030.6
20260507103100 57 263 0.0 3.0 0.00 0.00 0.00 65 1030.6
20260507101941 57 263 1.0 4.0 0.00 0.00 0.00 64 1030.6
20260507100833 57 263 2.0 11.0 0.00 0.00 0.00 64 1030.5
20260507100339 57 263 3.0 11.0 0.00 0.00 0.00 64 1030.5
20260507095820 57 263 3.0 11.0 0.00 0.00 0.00 64 1030.6
20260507094641 57 263 4.0 9.0 0.00 0.00 0.00 64 1030.6
20260507093525 57 263 2.0 5.0 0.00 0.00 0.00 64 1030.3